Regional Weather Roundup
Issued by NWS

Home | Current Version | Previous Version | Text Only | Print | Product List | Glossary Off
Versions: 1 2 3 4 5 6 7 8 9 10 11 12 13 14 15 16 17 18 19 20 21 22 23 24 25 26 27 28 29 30 31 32 33 34 35 36 37 38 39 40 41 42 43 44 45 46 47 48 49 50

081
ASUS43 KOAX 251810
RWRNE

WEATHER ROUNDUP FOR NEBRASKA
NATIONAL WEATHER SERVICE OMAHA NE
100 PM CDT TUE APR 25 2017

NOTES: SATELLITE DATA IS BEING USED TO AUGMENT CLOUD COVER ABOVE
       12000 FEET.
       "FAIR" INDICATES FEW OR NO CLOUDS BELOW 12,000 FEET WITH NO
       SIGNIFICANT WEATHER AND/OR OBSTRUCTIONS TO VISIBILITY.

  * THESE STATIONS DO NOT REPORT WEATHER SUCH AS RAIN...SNOW OR FOG.

NEZ001>004-019>022-054>056-251900-
NEBRASKA PANHANDLE

CITY           SKY/WX    TMP DP  RH WIND       PRES   REMARKS
SCOTTSBLUFF    CLOUDY    46  40  79 NE25G31   29.60R
6HR MIN TEMP:  43; 6HR MAX TEMP:  57; 6HR PCP: TRACE;

ALLIANCE       CLOUDY    38  36  92 NE15      29.63R WCI  29
6HR MIN TEMP:  38; 6HR MAX TEMP:  44;

CHADRON        CLOUDY    35  31  85 NE15      29.72R WCI  25
6HR MIN TEMP:  34; 6HR MAX TEMP:  39; 6HR PCP:  0.09;

KIMBALL        CLOUDY    55  32  42 NW25      29.59S
SIDNEY         PTSUNNY   56  37  49 N16       29.57F
6HR MIN TEMP:  41; 6HR MAX TEMP:  58;

$$

NEZ057>060-069>072-079>082-251900-
SOUTHWEST NEBRASKA

CITY           SKY/WX    TMP DP  RH WIND       PRES   REMARKS
NORTH PLATTE   CLOUDY    44  39  82 N13       29.60F
6HR MIN TEMP:  40; 6HR MAX TEMP:  44; 6HR PCP:  0.18;

IMPERIAL       CLOUDY    48  43  82 N13       29.59S
6HR MIN TEMP:  45; 6HR MAX TEMP:  49; 6HR PCP:  0.02;

LEXINGTON      CLOUDY    42  38  85 N14       29.60R
MCCOOK         CLOUDY    49  44  83 N15       29.56F
6HR MIN TEMP:  46; 6HR MAX TEMP:  49;

OGALLALA       CLOUDY    46  41  82 NE6       29.61F
$$

NEZ005>010-023>029-035>040-094-251900-
NORTH CENTRAL NEBRASKA

CITY           SKY/WX    TMP DP  RH WIND       PRES   REMARKS
VALENTINE      CLOUDY    37  32  82 N12       29.69R WCI  29
6HR MIN TEMP:  35; 6HR MAX TEMP:  38; 6HR PCP:  0.10;

AINSWORTH      CLOUDY    35  35 100 N15       29.66R FOG     WCI  25
BROKEN BOW     CLOUDY    41  50 100 N17       29.59S
6HR MIN TEMP:  39; 6HR MAX TEMP:  44; 6HR PCP:  0.37;

O`NEILL        CLOUDY    37  35  90 N16G23    29.62R WCI  28
ORD            CLOUDY    40  36  86 N14       29.59R WCI  32
6HR MIN TEMP:  39; 6HR MAX TEMP:  43; 6HR PCP:  0.29;

THEDFORD       RAIN      39  36  90 N12       29.65R WCI  32
$$

NEZ041-046>049-061>064-073>077-083>087-251900-
SOUTH CENTRAL NEBRASKA

CITY           SKY/WX    TMP DP  RH WIND       PRES   REMARKS
GRAND ISLAND   CLOUDY    41  40  96 N16       29.58S
6HR MIN TEMP:  41; 6HR MAX TEMP:  44; 6HR PCP:  0.07;

AURORA         CLOUDY    43  39  87 N22       29.55S
HASTINGS       CLOUDY    44  38  79 N22       29.56R
6HR MIN TEMP:  43; 6HR MAX TEMP:  47; 6HR PCP:  0.02;

HEBRON         CLOUDY    48  40  74 N16G24    29.51R
HOLDREGE       CLOUDY    45  41  86 N15G22    29.56R
KEARNEY *      CLOUDY    43  37  81 N17       29.57S
YORK           CLOUDY    45  39  81 N24       29.53F
$$

NEZ011>018-030>034-042>045-251900-
NORTHEAST NEBRASKA

CITY           SKY/WX    TMP DP  RH WIND       PRES   REMARKS
NORFOLK        CLOUDY    40  36  86 N18       29.55F WCI  31
6HR MIN TEMP:  39; 6HR MAX TEMP:  41; 6HR PCP:  0.23;

ALBION         CLOUDY    39  36  86 N12G17    29.59R WCI  32
BLAIR          CLOUDY    49  43  81 N18G25    29.50S
FREMONT        CLOUDY    49  41  74 N15G23    29.52F
TEKAMAH        CLOUDY    48  41  76 N21       29.54F
6HR MIN TEMP:  45; 6HR MAX TEMP:  50; 6HR PCP: TRACE;

WAYNE          CLOUDY    42  41  99 N13G18    29.57F
$$

NEZ050>053-065>068-078-088>093-251900-
SOUTHEAST NEBRASKA

CITY           SKY/WX    TMP DP  RH WIND       PRES   REMARKS
LINCOLN        CLOUDY    51  42  71 N18       29.51F
6HR MIN TEMP:  48; 6HR MAX TEMP:  52;

OMAHA EPPLEY   CLOUDY    53  44  71 N17       29.48F
6HR MIN TEMP:  49; 6HR MAX TEMP:  55;

BEATRICE       CLOUDY    54  44  68 N17       29.48S
FALLS CITY     CLOUDY    65  51  60 W6        29.41S
6HR MIN TEMP:  53; 6HR MAX TEMP:  68;

NEBRASKA CITY  CLOUDY    61  43  51 N13       29.45S
PLATTSMOUTH    CLOUDY    56  43  61 N10       29.48R
$$

NEZ044-045-051>053-067-251900-
OMAHA AREA

CITY           SKY/WX    TMP DP  RH WIND       PRES   REMARKS
OMAHA EPPLEY   CLOUDY    53  44  71 N17       29.48F
6HR MIN TEMP:  49; 6HR MAX TEMP:  55;

BLAIR          CLOUDY    49  43  81 N18G25    29.50S
FREMONT        CLOUDY    49  41  74 N15G23    29.52F
MILLARD        CLOUDY    53  46  77 N7        29.50S
OFFUTT AFB     CLOUDY    56  46  70 N12       29.48F
PLATTSMOUTH    CLOUDY    56  43  61 N10       29.48R
WAHOO          CLOUDY    50  41  72 N21G26    29.51S
$$




USA.gov is the U.S. government's official web portal to all federal, state and local government web resources and services.